| time (UTC) | temp F | wind direction | speed knots | gust knots | rain 1hr in | rain 24hr in | rain mn in | humidity % | barometer mb |
| 20260505224510 | 78 | 169 | 4.3 | 13.9 | 0.00 | 0.04 | 0.04 | 38 | 1004.8 |
| 20260505223009 | 79 | 80 | 5.2 | 13.0 | 0.00 | 0.04 | 0.04 | 37 | 1004.9 |
| 20260505221503 | 79 | 40 | 3.5 | 9.6 | 0.00 | 0.04 | 0.04 | 37 | 1004.8 |
| 20260505220006 | 80 | 48 | 4.3 | 13.0 | 0.00 | 0.04 | 0.04 | 39 | 1004.8 |
| 20260505214608 | 80 | 119 | 5.2 | 13.0 | 0.00 | 0.04 | 0.04 | 37 | 1004.6 |
| 20260505213059 | 80 | 53 | 6.1 | 19.1 | 0.00 | 0.04 | 0.04 | 36 | 1004.7 |
| 20260505211553 | 80 | 78 | 2.6 | 12.2 | 0.00 | 0.04 | 0.04 | 39 | 1004.7 |
| 20260505210052 | 81 | 338 | 5.2 | 11.3 | 0.00 | 0.04 | 0.04 | 37 | 1004.7 |
| 20260505204546 | 81 | 164 | 4.3 | 13.9 | 0.00 | 0.04 | 0.04 | 38 | 1004.6 |
| 20260505203048 | 81 | 69 | 7.0 | 14.8 | 0.00 | 0.04 | 0.04 | 37 | 1004.8 |
| 20260505201551 | 82 | 79 | 5.2 | 12.2 | 0.00 | 0.04 | 0.04 | 37 | 1004.8 |
| 20260505200022 | 82 | 79 | 6.1 | 15.6 | 0.00 | 0.04 | 0.04 | 37 | 1004.8 |
| 20260505194520 | 82 | 92 | 3.5 | 13.9 | 0.00 | 0.04 | 0.04 | 37 | 1004.8 |
| 20260505193036 | 82 | 121 | 2.6 | 16.5 | 0.00 | 0.04 | 0.04 | 39 | 1004.9 |
| 20260505191513 | 80 | 167 | 4.3 | 13.9 | 0.00 | 0.04 | 0.04 | 40 | 1005.2 |
| 20260505190026 | 81 | 58 | 1.7 | 13.9 | 0.00 | 0.04 | 0.04 | 38 | 1005.4 |
| 20260505184511 | 82 | 107 | 6.1 | 15.6 | 0.00 | 0.04 | 0.04 | 39 | 1005.8 |
| 20260505183015 | 82 | 109 | 7.0 | 13.9 | 0.00 | 0.04 | 0.04 | 38 | 1005.7 |
| 20260505181513 | 81 | 109 | 7.0 | 14.8 | 0.00 | 0.04 | 0.04 | 41 | 1006.0 |
| 20260505180006 | 81 | 103 | 3.5 | 9.6 | 0.00 | 0.04 | 0.04 | 42 | 1006.2 |
| 20260505174505 | 81 | 61 | 5.2 | 11.3 | 0.00 | 0.04 | 0.04 | 40 | 1006.0 |
| 20260505173001 | 81 | 202 | 7.0 | 17.4 | 0.00 | 0.04 | 0.04 | 39 | 1006.4 |
| 20260505171601 | 80 | 220 | 3.5 | 14.8 | 0.00 | 0.04 | 0.04 | 43 | 1006.5 |
| 20260505170108 | 80 | 117 | 5.2 | 13.9 | 0.00 | 0.04 | 0.04 | 45 | 1006.6 |
| 20260505164557 | 79 | 106 | 2.6 | 10.4 | 0.00 | 0.04 | 0.04 | 44 | 1006.9 |
| 20260505163105 | 79 | 129 | 3.5 | 13.0 | 0.00 | 0.04 | 0.04 | 47 | 1007.0 |
| 20260505161551 | 78 | 110 | 4.3 | 13.0 | 0.00 | 0.04 | 0.04 | 47 | 1007.2 |
| 20260505153048 | 75 | 53 | 0.9 | 8.7 | 0.00 | 0.04 | 0.04 | 54 | 1007.7 |
| 20260505151541 | 74 | 59 | 4.3 | 10.4 | 0.00 | 0.04 | 0.04 | 53 | 1008.0 |
| 20260505130103 | 63 | 108 | 0.9 | 2.6 | 0.00 | 0.04 | 0.04 | 85 | 1009.0 |
| 20260505124608 | 59 | 238 | 0.0 | 0.9 | 0.00 | 0.04 | 0.04 | 90 | 1008.9 |
| 20260505123111 | 57 | 240 | 0.0 | 0.9 | 0.00 | 0.04 | 0.04 | 97 | 1008.9 |
| 20260505121555 | 54 | 240 | 0.0 | 0.9 | 0.00 | 0.04 | 0.04 | 98 | 1009.0 |
| 20260505120054 | 52 | 239 | 0.0 | 1.7 | 0.00 | 0.04 | 0.04 | 98 | 1008.7 |
| 20260505114559 | 51 | 229 | 0.0 | 0.9 | 0.01 | 0.04 | 0.04 | 97 | 1008.9 |
| 20260505113050 | 50 | 229 | 0.0 | 0.9 | 0.01 | 0.04 | 0.04 | 97 | 1008.8 |
| 20260505111546 | 49 | 229 | 0.0 | 0.0 | 0.01 | 0.04 | 0.04 | 97 | 1008.8 |
| 20260505101538 | 48 | 229 | 0.0 | 0.0 | 0.00 | 0.03 | 0.03 | 95 | 1008.4 |
| 20260505100033 | 49 | 229 | 0.0 | 0.0 | 0.00 | 0.03 | 0.03 | 95 | 1008.2 |
| 20260505094531 | 49 | 229 | 0.0 | 0.0 | 0.00 | 0.03 | 0.03 | 94 | 1008.2 |
| 20260505093034 | 50 | 229 | 0.0 | 0.0 | 0.00 | 0.03 | 0.03 | 94 | 1008.0 |
| 20260505091538 | 50 | 229 | 0.0 | 0.0 | 0.00 | 0.03 | 0.03 | 94 | 1007.8 |
| 20260505090043 | 51 | 229 | 0.0 | 0.0 | 0.00 | 0.03 | 0.03 | 94 | 1007.9 |
| 20260505084525 | 51 | 245 | 0.0 | 0.9 | 0.02 | 0.03 | 0.03 | 93 | 1008.0 |
| 20260505083018 | 52 | 245 | 0.0 | 0.9 | 0.02 | 0.03 | 0.03 | 93 | 1007.9 |
| 20260505081524 | 52 | 245 | 0.0 | 1.7 | 0.03 | 0.03 | 0.03 | 93 | 1007.8 |
| 20260505080038 | 52 | 243 | 0.0 | 2.6 | 0.03 | 0.03 | 0.03 | 92 | 1008.0 |
| 20260505074513 | 52 | 214 | 0.0 | 2.6 | 0.01 | 0.01 | 0.01 | 91 | 1008.3 |
| 20260505073014 | 52 | 177 | 2.6 | 5.2 | 0.01 | 0.01 | 0.01 | 88 | 1007.3 |
| 20260505071509 | 52 | 217 | 0.0 | 0.9 | 0.00 | 0.00 | 0.00 | 87 | 1007.9 |
| 20260505070005 | 52 | 230 | 0.0 | 0.9 | 0.00 | 0.00 | 0.00 | 86 | 1007.7 |
| 20260505064503 | 52 | 230 | 0.0 | 0.0 | 0.00 | 0.00 | 0.00 | 85 | 1007.7 |
| 20260505063005 | 52 | 230 | 0.0 | 0.0 | 0.00 | 0.00 | 0.00 | 84 | 1007.8 |
| 20260505061605 | 52 | 230 | 0.0 | 0.0 | 0.00 | 0.00 | 0.00 | 82 | 1007.9 |
| 20260505060100 | 52 | 230 | 0.0 | 0.9 | 0.00 | 0.00 | 0.00 | 82 | 1007.9 |
| 20260505054559 | 51 | 230 | 0.0 | 1.7 | 0.00 | 0.00 | 0.00 | 82 | 1008.0 |
| 20260505053056 | 51 | 148 | 0.0 | 0.0 | 0.00 | 0.00 | 0.00 | 81 | 1008.0 |
| 20260505051556 | 52 | 148 | 0.0 | 0.0 | 0.00 | 0.00 | 0.00 | 79 | 1007.9 |
| 20260505050124 | 52 | 148 | 0.0 | 0.0 | 0.00 | 0.00 | 0.00 | 78 | 1007.9 |
| 20260505041553 | 54 | 226 | 0.0 | 0.9 | 0.00 | 0.00 | 0.00 | 74 | 1007.6 |
| 20260505040052 | 54 | 226 | 0.0 | 2.6 | 0.00 | 0.00 | 0.00 | 73 | 1007.6 |
| 20260505034541 | 55 | 76 | 0.0 | 0.9 | 0.00 | 0.00 | 0.00 | 71 | 1007.4 |
| 20260505033036 | 56 | 76 | 0.0 | 0.9 | 0.00 | 0.00 | 0.00 | 70 | 1007.6 |
| 20260505031540 | 56 | 76 | 0.0 | 0.9 | 0.00 | 0.00 | 0.00 | 68 | 1007.3 |
| 20260505030035 | 57 | 76 | 0.0 | 0.0 | 0.00 | 0.00 | 0.00 | 66 | 1007.6 |
| 20260505024529 | 58 | 76 | 0.0 | 1.7 | 0.00 | 0.00 | 0.00 | 64 | 1007.4 |
| 20260505023035 | 59 | 25 | 0.0 | 0.9 | 0.00 | 0.00 | 0.00 | 62 | 1007.6 |
| 20260505021527 | 60 | 25 | 0.9 | 5.2 | 0.00 | 0.00 | 0.00 | 60 | 1007.7 |
| 20260505020006 | 60 | 5 | 0.0 | 1.7 | 0.00 | 0.00 | 0.00 | 59 | 1007.7 |
| 20260505014623 | 61 | 360 | 0.0 | 1.7 | 0.00 | 0.00 | 0.00 | 59 | 1007.6 |
| 20260505013044 | 61 | 148 | 0.0 | 1.7 | 0.00 | 0.00 | 0.00 | 59 | 1007.7 |
| 20260505011538 | 62 | 135 | 0.0 | 1.7 | 0.00 | 0.00 | 0.00 | 57 | 1007.5 |
| 20260505010020 | 63 | 355 | 0.9 | 3.5 | 0.00 | 0.00 | 0.00 | 54 | 1007.3 |
| 20260505004531 | 64 | 293 | 0.0 | 1.7 | 0.00 | 0.00 | 0.00 | 53 | 1007.3 |
| 20260505003010 | 66 | 89 | 0.9 | 6.1 | 0.00 | 0.00 | 0.00 | 50 | 1007.2 |
| 20260505001505 | 66 | 203 | 0.0 | 3.5 | 0.00 | 0.00 | 0.00 | 49 | 1007.0 |
| 20260505000138 | 67 | 46 | 0.0 | 2.6 | 0.00 | 0.00 | 0.00 | 50 | 1006.9 |
| 20260504234610 | 69 | 96 | 0.0 | 2.6 | 0.00 | 0.00 | 0.00 | 45 | 1006.7 |
| 20260504233059 | 70 | 103 | 0.9 | 6.1 | 0.00 | 0.00 | 0.00 | 43 | 1006.6 |
| 20260504231548 | 70 | 108 | 0.9 | 6.1 | 0.00 | 0.00 | 0.00 | 43 | 1006.6 |
| 20260504230036 | 70 | 122 | 1.7 | 6.1 | 0.00 | 0.00 | 0.00 | 43 | 1006.5 |
| 20260504224532 | 71 | 36 | 1.7 | 7.8 | 0.00 | 0.00 | 0.00 | 41 | 1006.5 |